Time,TemperatureF,DewpointF,PressureIn,WindDirection,WindDirectionDegrees,WindSpeedMPH,WindSpeedGustMPH,Humidity,HourlyPrecipIn,Conditions,Clouds,dailyrainin,SolarRadiationWatts/m^2,SoftwareType,DateUTC
2013-04-01 00:01:00,38.0,35.0,29.72,SE,135,0.0,5.0,89,0.00,,,0.00,0,weatherlink.com 1.10,2013-04-01 04:01:00,
2013-04-01 00:16:00,37.5,35.0,29.71,East,90,0.0,3.0,90,0.00,,,0.00,0,weatherlink.com 1.10,2013-04-01 04:16:00,
2013-04-01 00:31:00,37.2,35.0,29.70,SSW,194,0.0,4.0,91,0.00,,,0.00,0,weatherlink.com 1.10,2013-04-01 04:31:00,
2013-04-01 00:46:00,36.9,35.0,29.70,SW,220,0.0,2.0,92,0.00,,,0.00,0,weatherlink.com 1.10,2013-04-01 04:46:00,
2013-04-01 01:01:00,36.8,35.0,29.69,ESE,111,1.0,3.0,92,0.00,,,0.00,0,weatherlink.com 1.10,2013-04-01 05:01:00,
2013-04-01 01:46:00,36.3,35.0,29.66,SSE,157,0.0,3.0,93,0.00,,,0.00,0,weatherlink.com 1.10,2013-04-01 05:46:00,
2013-04-01 02:01:00,36.2,34.0,29.66,ENE,66,0.0,3.0,93,0.00,,,0.00,0,weatherlink.com 1.10,2013-04-01 06:01:00,
2013-04-01 02:16:00,36.1,34.0,29.66,East,94,3.0,5.0,93,0.00,,,0.00,0,weatherlink.com 1.10,2013-04-01 06:16:00,
2013-04-01 02:31:00,36.1,34.0,29.65,SW,221,0.0,7.0,93,0.00,,,0.00,0,weatherlink.com 1.10,2013-04-01 06:31:00,
2013-04-01 03:01:00,35.3,34.0,29.64,SSE,165,0.0,2.0,93,0.00,,,0.00,0,weatherlink.com 1.10,2013-04-01 07:01:00,
2013-04-01 03:16:00,34.9,33.0,29.63,ESE,115,0.0,2.0,93,0.00,,,0.00,0,weatherlink.com 1.10,2013-04-01 07:16:00,
2013-04-01 03:31:00,34.6,33.0,29.62,ESE,122,0.0,1.0,93,0.00,,,0.00,0,weatherlink.com 1.10,2013-04-01 07:31:00,
2013-04-01 03:46:00,34.3,33.0,29.61,East,87,0.0,3.0,94,0.00,,,0.00,0,weatherlink.com 1.10,2013-04-01 07:46:00,
2013-04-01 04:16:00,34.2,33.0,29.59,SSE,147,0.0,1.0,94,0.00,,,0.00,0,weatherlink.com 1.10,2013-04-01 08:16:00,
2013-04-01 04:46:00,34.2,33.0,29.59,West,259,0.0,1.0,94,0.00,,,0.00,0,weatherlink.com 1.10,2013-04-01 08:46:00,
2013-04-01 05:01:00,34.3,33.0,29.58,SE,146,0.0,1.0,95,0.00,,,0.00,0,weatherlink.com 1.10,2013-04-01 09:01:00,
2013-04-01 05:16:00,34.4,33.0,29.58,ENE,67,1.0,2.0,95,0.00,,,0.00,0,weatherlink.com 1.10,2013-04-01 09:16:00,
2013-04-01 05:31:00,34.4,33.0,29.57,East,94,0.0,1.0,95,0.00,,,0.00,0,weatherlink.com 1.10,2013-04-01 09:31:00,
2013-04-01 05:47:00,34.3,33.0,29.57,East,94,0.0,0.0,95,0.00,,,0.00,0,weatherlink.com 1.10,2013-04-01 09:47:00,
2013-04-01 06:01:00,34.1,33.0,29.57,NE,48,0.0,1.0,94,0.00,,,0.00,0,weatherlink.com 1.10,2013-04-01 10:01:00,
2013-04-01 06:17:00,34.0,33.0,29.57,ESE,119,0.0,1.0,95,0.00,,,0.00,0,weatherlink.com 1.10,2013-04-01 10:17:00,
2013-04-01 06:47:00,34.0,33.0,29.57,ENE,73,0.0,0.0,95,0.00,,,0.00,7,weatherlink.com 1.10,2013-04-01 10:47:00,
2013-04-01 07:02:00,34.0,33.0,29.57,SSE,152,0.0,2.0,95,0.00,,,0.00,16,weatherlink.com 1.10,2013-04-01 11:02:00,
2013-04-01 07:17:00,34.2,33.0,29.56,SSE,148,0.0,3.0,95,0.00,,,0.00,30,weatherlink.com 1.10,2013-04-01 11:17:00,
2013-04-01 07:32:00,34.5,33.0,29.57,South,174,0.0,3.0,95,0.00,,,0.00,46,weatherlink.com 1.10,2013-04-01 11:32:00,
2013-04-01 07:47:00,34.8,34.0,29.56,East,93,1.0,3.0,95,0.00,,,0.00,33,weatherlink.com 1.10,2013-04-01 11:47:00,
2013-04-01 08:02:00,34.9,34.0,29.56,ESE,112,0.0,3.0,95,0.00,,,0.00,40,weatherlink.com 1.10,2013-04-01 12:02:00,
2013-04-01 08:17:00,35.3,34.0,29.55,South,180,0.0,3.0,95,0.00,,,0.00,123,weatherlink.com 1.10,2013-04-01 12:17:00,
2013-04-01 08:32:00,35.9,35.0,29.55,SSE,163,0.0,5.0,95,0.00,,,0.00,121,weatherlink.com 1.10,2013-04-01 12:32:00,
2013-04-01 08:47:00,36.2,35.0,29.55,East,80,1.0,7.0,94,0.00,,,0.00,105,weatherlink.com 1.10,2013-04-01 12:47:00,
2013-04-01 09:02:00,36.6,35.0,29.54,SSW,198,0.0,7.0,94,0.00,,,0.00,134,weatherlink.com 1.10,2013-04-01 13:02:00,
2013-04-01 09:17:00,37.6,36.0,29.52,NE,35,0.0,5.0,93,0.00,,,0.00,174,weatherlink.com 1.10,2013-04-01 13:17:00,
2013-04-01 09:32:00,39.3,37.0,29.52,SE,125,3.0,8.0,91,0.00,,,0.00,209,weatherlink.com 1.10,2013-04-01 13:32:00,
2013-04-01 09:47:00,39.3,36.0,29.51,East,86,7.0,8.0,89,0.00,,,0.00,172,weatherlink.com 1.10,2013-04-01 13:47:00,
2013-04-01 10:02:00,40.0,37.0,29.50,South,171,1.0,8.0,89,0.00,,,0.00,211,weatherlink.com 1.10,2013-04-01 14:02:00,
2013-04-01 10:17:00,41.3,38.0,29.51,West,271,0.0,6.0,88,0.00,,,0.00,297,weatherlink.com 1.10,2013-04-01 14:17:00,
2013-04-01 10:32:00,43.2,39.0,29.50,East,101,2.0,7.0,84,0.00,,,0.00,213,weatherlink.com 1.10,2013-04-01 14:32:00,
2013-04-01 10:47:00,43.2,38.0,29.50,ESE,121,1.0,6.0,82,0.00,,,0.00,373,weatherlink.com 1.10,2013-04-01 14:47:00,
2013-04-01 11:02:00,42.4,38.0,29.50,WSW,248,2.0,6.0,83,0.00,,,0.00,199,weatherlink.com 1.10,2013-04-01 15:02:00,
2013-04-01 11:17:00,42.0,38.0,29.49,East,96,1.0,5.0,84,0.00,,,0.00,223,weatherlink.com 1.10,2013-04-01 15:17:00,
2013-04-01 11:32:00,41.9,37.0,29.48,SE,141,2.0,5.0,83,0.00,,,0.00,213,weatherlink.com 1.10,2013-04-01 15:32:00,
2013-04-01 11:47:00,42.0,38.0,29.49,East,84,0.0,7.0,84,0.00,,,0.00,160,weatherlink.com 1.10,2013-04-01 15:47:00,
2013-04-01 12:02:00,41.9,37.0,29.48,South,186,0.0,3.0,84,0.00,,,0.00,95,weatherlink.com 1.10,2013-04-01 16:02:00,
2013-04-01 12:17:00,41.6,38.0,29.48,South,181,1.0,6.0,86,0.00,,,0.00,167,weatherlink.com 1.10,2013-04-01 16:17:00,
2013-04-01 12:47:00,41.2,38.0,29.48,SSE,153,0.0,2.0,89,0.00,,,0.00,109,weatherlink.com 1.10,2013-04-01 16:47:00,
2013-04-01 13:02:00,41.0,39.0,29.48,SW,224,0.0,3.0,91,0.00,,,0.00,142,weatherlink.com 1.10,2013-04-01 17:02:00,
2013-04-01 13:17:00,40.8,38.0,29.48,ENE,74,0.0,3.0,91,0.00,,,0.00,63,weatherlink.com 1.10,2013-04-01 17:17:00,
2013-04-01 13:32:00,40.5,38.0,29.48,ENE,74,0.0,0.0,91,0.00,,,0.00,62,weatherlink.com 1.10,2013-04-01 17:32:00,
2013-04-01 13:47:00,40.1,38.0,29.48,NNW,338,0.0,3.0,92,0.00,,,0.00,114,weatherlink.com 1.10,2013-04-01 17:47:00,
2013-04-01 14:02:00,40.2,38.0,29.47,West,270,0.0,3.0,91,0.00,,,0.00,151,weatherlink.com 1.10,2013-04-01 18:02:00,
2013-04-01 14:17:00,40.1,38.0,29.48,East,87,1.0,2.0,92,0.00,,,0.00,84,weatherlink.com 1.10,2013-04-01 18:17:00,
2013-04-01 14:32:00,39.5,37.0,29.48,WNW,298,6.0,6.0,91,0.00,,,0.00,83,weatherlink.com 1.10,2013-04-01 18:32:00,
2013-04-01 15:02:00,35.2,33.0,29.51,SW,230,5.0,11.0,91,0.00,,,0.00,102,weatherlink.com 1.10,2013-04-01 19:02:00,
2013-04-01 15:17:00,34.4,32.0,29.52,ENE,58,4.0,7.0,91,0.00,,,0.00,62,weatherlink.com 1.10,2013-04-01 19:17:00,
2013-04-01 15:32:00,33.9,32.0,29.52,SSE,156,0.0,9.0,91,0.00,,,0.00,279,weatherlink.com 1.10,2013-04-01 19:32:00,
2013-04-01 15:47:00,35.4,33.0,29.53,WNW,288,2.0,6.0,90,0.00,,,0.00,209,weatherlink.com 1.10,2013-04-01 19:47:00,
2013-04-01 16:02:00,36.1,33.0,29.53,West,262,3.0,8.0,89,0.00,,,0.00,237,weatherlink.com 1.10,2013-04-01 20:02:00,
2013-04-01 16:17:00,35.8,31.0,29.54,NE,42,1.0,9.0,83,0.00,,,0.00,225,weatherlink.com 1.10,2013-04-01 20:17:00,
2013-04-01 16:32:00,35.4,29.0,29.55,NNW,343,1.0,8.0,78,0.00,,,0.00,142,weatherlink.com 1.10,2013-04-01 20:32:00,
2013-04-01 16:48:00,34.8,28.0,29.56,WSW,238,2.0,10.0,77,0.00,,,0.00,100,weatherlink.com 1.10,2013-04-01 20:48:00,
2013-04-01 17:03:00,34.6,28.0,29.57,West,277,0.0,7.0,77,0.00,,,0.00,160,weatherlink.com 1.10,2013-04-01 21:03:00,
2013-04-01 17:18:00,35.0,26.0,29.58,WNW,296,3.0,13.0,71,0.00,,,0.00,195,weatherlink.com 1.10,2013-04-01 21:18:00,
2013-04-01 17:33:00,36.1,24.0,29.58,SSW,209,1.0,7.0,61,0.00,,,0.00,174,weatherlink.com 1.10,2013-04-01 21:33:00,
2013-04-01 17:48:00,36.0,22.0,29.59,NW,306,3.0,7.0,57,0.00,,,0.00,63,weatherlink.com 1.10,2013-04-01 21:48:00,
2013-04-01 18:03:00,35.1,19.0,29.59,SW,227,3.0,9.0,53,0.00,,,0.00,77,weatherlink.com 1.10,2013-04-01 22:03:00,
2013-04-01 18:18:00,34.4,18.0,29.60,WSW,237,4.0,8.0,51,0.00,,,0.00,39,weatherlink.com 1.10,2013-04-01 22:18:00,
2013-04-01 18:33:00,33.5,18.0,29.61,SSE,165,0.0,12.0,53,0.00,,,0.00,32,weatherlink.com 1.10,2013-04-01 22:33:00,
2013-04-01 18:48:00,32.8,18.0,29.62,ESE,123,2.0,15.0,54,0.00,,,0.00,18,weatherlink.com 1.10,2013-04-01 22:48:00,
2013-04-01 19:03:00,31.9,17.0,29.63,WSW,247,5.0,18.0,55,0.00,,,0.00,11,weatherlink.com 1.10,2013-04-01 23:03:00,
2013-04-01 19:18:00,31.2,17.0,29.64,West,272,9.0,11.0,56,0.00,,,0.00,0,weatherlink.com 1.10,2013-04-01 23:18:00,
2013-04-01 19:33:00,30.6,16.0,29.64,NNW,330,3.0,14.0,56,0.00,,,0.00,0,weatherlink.com 1.10,2013-04-01 23:33:00,
2013-04-01 19:48:00,30.3,17.0,29.65,WSW,257,1.0,16.0,58,0.00,,,0.00,0,weatherlink.com 1.10,2013-04-01 23:48:00,
2013-04-01 20:03:00,29.8,16.0,29.65,WNW,298,3.0,11.0,57,0.00,,,0.00,0,weatherlink.com 1.10,2013-04-02 00:03:00,
2013-04-01 20:18:00,29.3,16.0,29.66,North,9,2.0,9.0,58,0.00,,,0.00,0,weatherlink.com 1.10,2013-04-02 00:18:00,
2013-04-01 20:33:00,29.3,19.0,29.67,NNW,341,2.0,17.0,65,0.00,,,0.00,0,weatherlink.com 1.10,2013-04-02 00:33:00,
2013-04-01 20:48:00,29.1,19.0,29.68,SSW,210,0.0,11.0,66,0.00,,,0.00,0,weatherlink.com 1.10,2013-04-02 00:48:00,
2013-04-01 21:03:00,28.9,17.0,29.68,WNW,284,7.0,9.0,62,0.00,,,0.00,0,weatherlink.com 1.10,2013-04-02 01:03:00,
2013-04-01 21:18:00,28.7,18.0,29.68,NNE,12,1.0,14.0,64,0.00,,,0.00,0,weatherlink.com 1.10,2013-04-02 01:18:00,
2013-04-01 21:33:00,28.4,16.0,29.68,NW,321,1.0,9.0,60,0.00,,,0.00,0,weatherlink.com 1.10,2013-04-02 01:33:00,
2013-04-01 21:48:00,28.2,15.0,29.69,SSW,205,0.0,9.0,59,0.00,,,0.00,0,weatherlink.com 1.10,2013-04-02 01:48:00,
2013-04-01 22:03:00,28.1,16.0,29.69,WSW,256,4.0,7.0,60,0.00,,,0.00,0,weatherlink.com 1.10,2013-04-02 02:03:00,
2013-04-01 22:18:00,27.6,16.0,29.69,East,94,8.0,8.0,61,0.00,,,0.00,0,weatherlink.com 1.10,2013-04-02 02:18:00,
2013-04-01 22:33:00,27.1,17.0,29.70,SW,215,1.0,11.0,67,0.00,,,0.00,0,weatherlink.com 1.10,2013-04-02 02:33:00,
2013-04-01 22:48:00,26.0,18.0,29.70,NW,324,0.0,5.0,73,0.00,,,0.00,0,weatherlink.com 1.10,2013-04-02 02:48:00,
2013-04-01 23:03:00,26.1,17.0,29.70,NW,304,0.0,8.0,69,0.00,,,0.00,0,weatherlink.com 1.10,2013-04-02 03:03:00,
2013-04-01 23:19:00,26.2,17.0,29.70,West,272,2.0,5.0,69,0.00,,,0.00,0,weatherlink.com 1.10,2013-04-02 03:19:00,
2013-04-01 23:34:00,25.8,17.0,29.70,NNW,327,0.0,8.0,68,0.00,,,0.00,0,weatherlink.com 1.10,2013-04-02 03:34:00,
2013-04-01 23:49:00,25.5,18.0,29.70,South,178,0.0,10.0,72,0.00,,,0.00,0,weatherlink.com 1.10,2013-04-02 03:49:00,